Find Kosmos-2478

NORAD ID: 37938 Int'l Des: 2011-071 Owner: KVR/IACG Country: RU Constellation: GLONASS operational
MEOCIRCULAR

リアルタイム位置

3D地球を読み込み中...

Kosmos-2478について

説明を読み込み中...

次回通過

Passes for default location (London). Set your location on the main map for personalized predictions.

高度履歴

Loading altitude history...

軌道要素

1 37938U 11071A 26124.07475205 -.00000043 00000-0 00000+0 0 9992
2 37938 65.4887 316.3526 0016220 217.3993 331.7033 2.13015841112202
Epoch: May 4, 2026 • Age: 41 hours

現在のステータス

高度 19180.9 km
速度 3.95 km/s
衛星直下点 58.63°N, 145.93°W
打ち上げ日 Nov 28, 2011
運用期間 14.4 years
タイプ other

技術仕様

分類 Payload
質量 1450.00 kg
乾燥質量 1200.00 kg
総質量 1450.00 kg
長さ 4.00 m
直径 1.50 m
スパン 7.80 m
形状 Cyl + Ant + 2 Pan
製造者 RESH
バスタイプ Uragan
フェーズステータス In Orbit
所有者/国 KVR/IACG/RU

Most Searched